JJP332 ROAH-RJAA

Flight info

Callsign JJP332
Flight time 2h 3m
Altitude 37000
Route AMAMI Y574 SHIBK Y57 YULIA Y89 GUPER Y81 RUTAS
Aircraft A320/M-SDE3FGHIRWY/LB1

Departure

Time 2026-04-22 23:31
Airport Naha International Airport (ROAH)

Arrival

Time 2026-04-23 01:34
Airport Narita International Airport (RJAA)
Time Latitude Longitude Altitude Speed Heading
2026-04-22 23:29 26.20897 127.64556 17 ft 9 kts 258°
2026-04-22 23:29 26.20866 127.64525 18 ft 5 kts 191°
2026-04-22 23:29 26.20843 127.64527 18 ft 0 kts 176°
2026-04-22 23:29 26.20842 127.64527 18 ft 1 kts 177°
2026-04-22 23:30 26.20781 127.64531 18 ft 25 kts 177°
2026-04-22 23:30 26.20365 127.64550 19 ft 91 kts 178°
2026-04-22 23:30 26.19549 127.64589 17 ft 140 kts 177°
2026-04-22 23:30 26.18488 127.64651 382 ft 153 kts 178°
2026-04-22 23:31 26.17446 127.64714 1110 ft 149 kts 177°
2026-04-22 23:31 26.16425 127.64769 1721 ft 151 kts 179°
2026-04-22 23:31 26.15327 127.64812 2113 ft 166 kts 180°
2026-04-22 23:31 26.14085 127.64863 2399 ft 192 kts 181°
2026-04-22 23:32 26.12667 127.64920 2764 ft 216 kts 181°
2026-04-22 23:32 26.11089 127.64985 3218 ft 238 kts 182°
2026-04-22 23:32 26.09384 127.65059 3948 ft 249 kts 182°
2026-04-22 23:32 26.07630 127.65144 4766 ft 257 kts 182°
2026-04-22 23:33 26.05815 127.65231 5607 ft 264 kts 182°
2026-04-22 23:33 26.03966 127.65445 6422 ft 275 kts 168°
2026-04-22 23:33 26.02257 127.66513 7203 ft 293 kts 140°
2026-04-22 23:33 26.01159 127.68461 7948 ft 307 kts 109°
2026-04-22 23:34 26.00977 127.70853 8720 ft 316 kts 86°
2026-04-22 23:34 26.01382 127.73264 9498 ft 320 kts 72°
2026-04-22 23:34 26.02287 127.75547 10103 ft 330 kts 58°
2026-04-22 23:34 26.03689 127.77657 10300 ft 350 kts 48°
2026-04-22 23:35 26.05276 127.79785 10766 ft 361 kts 49°
2026-04-22 23:35 26.06880 127.81956 11442 ft 365 kts 49°
2026-04-22 23:35 26.08489 127.84150 12145 ft 368 kts 49°
2026-04-22 23:35 26.10087 127.86344 12831 ft 371 kts 49°
2026-04-22 23:36 26.11714 127.88585 13478 ft 375 kts 49°
2026-04-22 23:36 26.13362 127.90857 14087 ft 379 kts 49°
2026-04-22 23:36 26.15028 127.93149 14669 ft 383 kts 49°
2026-04-22 23:36 26.16821 127.95344 15224 ft 384 kts 39°
2026-04-22 23:37 26.18950 127.97136 15772 ft 384 kts 27°
2026-04-22 23:37 26.21245 127.98669 16341 ft 386 kts 27°
2026-04-22 23:37 26.23557 128.00221 16897 ft 390 kts 27°
2026-04-22 23:37 26.25884 128.01792 17452 ft 393 kts 27°
2026-04-22 23:38 26.28229 128.03380 17973 ft 396 kts 27°
2026-04-22 23:38 26.30596 128.04984 18494 ft 400 kts 27°
2026-04-22 23:38 26.32982 128.06600 18990 ft 403 kts 27°
2026-04-22 23:38 26.35390 128.08232 19476 ft 407 kts 27°
2026-04-22 23:39 26.37821 128.09879 19948 ft 411 kts 27°
2026-04-22 23:39 26.40272 128.11540 20416 ft 414 kts 27°
2026-04-22 23:39 26.42744 128.13216 20868 ft 418 kts 27°
2026-04-22 23:39 26.45204 128.14884 21300 ft 421 kts 27°
2026-04-22 23:40 26.47712 128.16586 21719 ft 424 kts 27°
2026-04-22 23:40 26.50245 128.18308 22130 ft 427 kts 27°
2026-04-22 23:40 26.52794 128.20038 22537 ft 431 kts 27°
2026-04-22 23:40 26.55361 128.21780 22949 ft 433 kts 27°
2026-04-22 23:41 26.57950 128.23540 23336 ft 436 kts 27°
2026-04-22 23:41 26.60553 128.25311 23707 ft 440 kts 27°
2026-04-22 23:41 26.63174 128.27098 24067 ft 443 kts 27°
2026-04-22 23:41 26.65812 128.28902 24430 ft 446 kts 28°
2026-04-22 23:42 26.68331 128.30966 24789 ft 453 kts 38°
2026-04-22 23:42 26.70544 128.33506 25157 ft 459 kts 48°
2026-04-22 23:42 26.72540 128.36307 25519 ft 462 kts 49°
2026-04-22 23:42 26.74546 128.39131 25887 ft 464 kts 49°
2026-04-22 23:43 26.76561 128.41970 26244 ft 466 kts 49°
2026-04-22 23:43 26.78585 128.44819 26583 ft 469 kts 49°
2026-04-22 23:43 26.80618 128.47684 26918 ft 471 kts 49°
2026-04-22 23:43 26.82656 128.50561 27249 ft 473 kts 49°
2026-04-22 23:44 26.84705 128.53456 27564 ft 475 kts 49°
2026-04-22 23:44 26.86736 128.56324 27867 ft 477 kts 49°
2026-04-22 23:44 26.88806 128.59245 28189 ft 480 kts 49°
2026-04-22 23:44 26.90897 128.62169 28514 ft 481 kts 46°
2026-04-22 23:45 26.93241 128.64828 28830 ft 480 kts 37°
2026-04-22 23:45 26.95911 128.67054 29160 ft 477 kts 27°
2026-04-22 23:45 26.98799 128.68872 29497 ft 476 kts 24°
2026-04-22 23:45 27.01721 128.70638 29827 ft 478 kts 24°
2026-04-22 23:46 27.04661 128.72415 30152 ft 481 kts 24°
2026-04-22 23:46 27.07610 128.74203 30462 ft 483 kts 24°
2026-04-22 23:46 27.10574 128.76000 30768 ft 485 kts 24°
2026-04-22 23:46 27.13546 128.77805 31126 ft 486 kts 24°
2026-04-22 23:47 27.16518 128.79609 31563 ft 485 kts 23°
2026-04-22 23:47 27.19479 128.81410 32008 ft 484 kts 23°
2026-04-22 23:47 27.22437 128.83210 32445 ft 483 kts 23°
2026-04-22 23:47 27.25386 128.85008 32880 ft 482 kts 23°
2026-04-22 23:48 27.28325 128.86805 33297 ft 481 kts 22°
2026-04-22 23:48 27.31263 128.88603 33713 ft 480 kts 22°
2026-04-22 23:48 27.34198 128.90398 34146 ft 479 kts 22°
2026-04-22 23:48 27.37087 128.92158 34539 ft 478 kts 22°
2026-04-22 23:49 27.40008 128.93940 34927 ft 478 kts 22°
2026-04-22 23:49 27.42928 128.95723 35305 ft 477 kts 22°
2026-04-22 23:49 27.45838 128.97500 35658 ft 476 kts 22°
2026-04-22 23:49 27.48747 128.99279 36028 ft 475 kts 22°
2026-04-22 23:50 27.51644 129.01054 36358 ft 474 kts 21°
2026-04-22 23:50 27.54540 129.02831 36664 ft 474 kts 21°
2026-04-22 23:50 27.57437 129.04609 36794 ft 474 kts 21°
2026-04-22 23:50 27.60332 129.06384 36809 ft 472 kts 21°
2026-04-22 23:51 27.66070 129.09903 36802 ft 467 kts 21°
2026-04-22 23:51 27.71764 129.13400 36804 ft 465 kts 21°
2026-04-22 23:52 27.77450 129.16898 36802 ft 465 kts 21°
2026-04-22 23:52 27.83132 129.20396 36805 ft 465 kts 21°
2026-04-22 23:53 27.88817 129.23901 36811 ft 466 kts 21°
2026-04-22 23:53 27.94459 129.27399 36806 ft 466 kts 21°
2026-04-22 23:54 28.00146 129.30920 36810 ft 466 kts 21°
2026-04-22 23:54 28.05839 129.34440 36800 ft 467 kts 21°
2026-04-22 23:55 28.11549 129.37971 36798 ft 468 kts 21°
2026-04-22 23:55 28.17256 129.41516 36798 ft 468 kts 21°
2026-04-22 23:56 28.22973 129.45069 36797 ft 468 kts 21°
2026-04-22 23:56 28.28685 129.48617 36798 ft 468 kts 21°
2026-04-22 23:57 28.34394 129.52178 36797 ft 468 kts 21°
2026-04-22 23:57 28.39894 129.56228 36796 ft 481 kts 37°
2026-04-22 23:58 28.42156 129.59064 36790 ft 489 kts 49°
2026-04-22 23:58 28.43893 129.62355 36789 ft 496 kts 62°
2026-04-22 23:58 28.45063 129.66058 36789 ft 500 kts 75°
2026-04-22 23:58 28.45631 129.69965 36788 ft 502 kts 82°
2026-04-22 23:59 28.46489 129.77837 36785 ft 503 kts 82°
2026-04-22 23:59 28.47349 129.85732 36791 ft 503 kts 82°
2026-04-23 00:00 28.48472 129.96245 36793 ft 504 kts 82°
2026-04-23 00:01 28.49462 130.05490 36797 ft 504 kts 82°
2026-04-23 00:01 28.50829 130.13259 36802 ft 499 kts 68°
2026-04-23 00:02 28.53921 130.20211 36800 ft 489 kts 50°
2026-04-23 00:02 28.57794 130.26586 36796 ft 490 kts 51°
2026-04-23 00:03 28.61660 130.32975 36801 ft 490 kts 51°
2026-04-23 00:03 28.65494 130.39332 36798 ft 491 kts 51°
2026-04-23 00:04 28.69394 130.45790 36779 ft 493 kts 51°
2026-04-23 00:04 28.73256 130.52192 36777 ft 494 kts 51°
2026-04-23 00:05 28.77134 130.58657 36783 ft 494 kts 51°
2026-04-23 00:05 28.81016 130.65125 36786 ft 495 kts 51°
2026-04-23 00:06 28.84907 130.71606 36789 ft 495 kts 51°
2026-04-23 00:06 28.88793 130.78088 36793 ft 495 kts 51°
2026-04-23 00:07 28.92680 130.84577 36794 ft 495 kts 51°
2026-04-23 00:07 28.96567 130.91075 36795 ft 495 kts 52°
2026-04-23 00:08 28.99794 130.96478 36796 ft 496 kts 52°
2026-04-23 00:08 29.04303 131.04050 36799 ft 496 kts 52°
2026-04-23 00:09 29.08176 131.10575 36796 ft 495 kts 52°
2026-04-23 00:09 29.12045 131.17090 36797 ft 495 kts 52°
2026-04-23 00:10 29.15286 131.22553 36799 ft 495 kts 52°
2026-04-23 00:10 29.19125 131.29033 36792 ft 495 kts 52°
2026-04-23 00:11 29.22985 131.35557 36787 ft 495 kts 52°
2026-04-23 00:11 29.26836 131.42079 36782 ft 494 kts 52°
2026-04-23 00:12 29.30686 131.48604 36778 ft 494 kts 52°
2026-04-23 00:12 29.34522 131.55140 36781 ft 494 kts 52°
2026-04-23 00:13 29.38355 131.61680 36783 ft 494 kts 52°
2026-04-23 00:13 29.42188 131.68222 36781 ft 494 kts 52°
2026-04-23 00:14 29.46018 131.74765 36782 ft 494 kts 52°
2026-04-23 00:14 29.49846 131.81315 36780 ft 494 kts 53°
2026-04-23 00:15 29.53670 131.87871 36783 ft 494 kts 53°
2026-04-23 00:15 29.57485 131.94430 36781 ft 494 kts 53°
2026-04-23 00:16 29.61278 132.00944 36781 ft 494 kts 53°
2026-04-23 00:16 29.65096 132.07507 36783 ft 493 kts 51°
2026-04-23 00:17 29.69374 132.13624 36782 ft 490 kts 46°
2026-04-23 00:17 29.73716 132.19687 36783 ft 491 kts 46°
2026-04-23 00:18 29.78046 132.25762 36783 ft 491 kts 47°
2026-04-23 00:18 29.82370 132.31843 36780 ft 491 kts 47°
2026-04-23 00:19 29.86689 132.37931 36772 ft 491 kts 47°
2026-04-23 00:19 29.91003 132.44025 36768 ft 490 kts 47°
2026-04-23 00:20 29.95282 132.50079 36768 ft 490 kts 47°
2026-04-23 00:20 29.99588 132.56170 36767 ft 490 kts 47°
2026-04-23 00:21 30.03893 132.62261 36754 ft 490 kts 47°
2026-04-23 00:21 30.08200 132.68372 36746 ft 491 kts 47°
2026-04-23 00:22 30.12510 132.74503 36749 ft 492 kts 47°
2026-04-23 00:22 30.16823 132.80649 36757 ft 492 kts 47°
2026-04-23 00:23 30.21132 132.86793 36765 ft 492 kts 47°
2026-04-23 00:23 30.25445 132.92950 36767 ft 493 kts 47°
2026-04-23 00:24 30.29755 132.99110 36768 ft 492 kts 47°
2026-04-23 00:24 30.34058 133.05282 36768 ft 492 kts 47°
2026-04-23 00:25 30.38353 133.11453 36767 ft 492 kts 47°
2026-04-23 00:25 30.42619 133.17583 36769 ft 492 kts 47°
2026-04-23 00:26 30.46917 133.23764 36771 ft 492 kts 47°
2026-04-23 00:26 30.51217 133.29952 36766 ft 492 kts 47°
2026-04-23 00:27 30.55511 133.36143 36766 ft 492 kts 47°
2026-04-23 00:27 30.59797 133.42341 36763 ft 492 kts 47°
2026-04-23 00:28 30.64078 133.48545 36752 ft 492 kts 48°
2026-04-23 00:28 30.68354 133.54742 36744 ft 492 kts 48°
2026-04-23 00:29 30.72625 133.60951 36745 ft 492 kts 48°
2026-04-23 00:29 30.76904 133.67172 36747 ft 492 kts 48°
2026-04-23 00:30 30.81179 133.73394 36756 ft 492 kts 48°
2026-04-23 00:30 30.85448 133.79620 36756 ft 492 kts 48°
2026-04-23 00:31 30.89710 133.85850 36759 ft 492 kts 48°
2026-04-23 00:31 30.93973 133.92098 36762 ft 493 kts 48°
2026-04-23 00:32 30.98235 133.98354 36777 ft 493 kts 48°
2026-04-23 00:32 31.02508 134.04624 36790 ft 494 kts 48°
2026-04-23 00:33 31.06745 134.10852 36802 ft 493 kts 48°
2026-04-23 00:33 31.11004 134.17128 36800 ft 493 kts 48°
2026-04-23 00:34 31.15265 134.23406 36802 ft 494 kts 48°
2026-04-23 00:34 31.19520 134.29708 36800 ft 494 kts 48°
2026-04-23 00:35 31.23781 134.36014 36802 ft 494 kts 48°
2026-04-23 00:35 31.28042 134.42315 36802 ft 494 kts 48°
2026-04-23 00:36 31.32302 134.48636 36805 ft 495 kts 48°
2026-04-23 00:36 31.36556 134.54966 36807 ft 495 kts 48°
2026-04-23 00:37 31.40823 134.61314 36807 ft 497 kts 48°
2026-04-23 00:37 31.45080 134.67679 36818 ft 497 kts 48°
2026-04-23 00:38 31.49337 134.74047 36823 ft 496 kts 48°
2026-04-23 00:38 31.53564 134.80372 36823 ft 496 kts 48°
2026-04-23 00:39 31.57818 134.86742 36822 ft 496 kts 48°
2026-04-23 00:39 31.62065 134.93125 36825 ft 496 kts 48°
2026-04-23 00:40 31.66308 134.99513 36815 ft 496 kts 48°
2026-04-23 00:40 31.70547 135.05910 36820 ft 496 kts 48°
2026-04-23 00:41 31.74621 135.12476 36818 ft 499 kts 53°
2026-04-23 00:41 31.78362 135.19346 36824 ft 500 kts 55°
2026-04-23 00:42 31.82026 135.26289 36826 ft 499 kts 54°
2026-04-23 00:42 31.85776 135.33159 36832 ft 499 kts 53°
2026-04-23 00:43 31.89586 135.39989 36835 ft 499 kts 53°
2026-04-23 00:43 31.93365 135.46792 36848 ft 500 kts 53°
2026-04-23 00:44 31.97144 135.53668 36857 ft 500 kts 53°
2026-04-23 00:44 32.00915 135.60560 36861 ft 501 kts 53°
2026-04-23 00:45 32.04699 135.67454 36850 ft 501 kts 53°
2026-04-23 00:45 32.08482 135.74371 36851 ft 502 kts 54°
2026-04-23 00:46 32.12264 135.81305 36859 ft 503 kts 53°
2026-04-23 00:46 32.16048 135.88246 36863 ft 503 kts 53°
2026-04-23 00:47 32.19830 135.95193 36868 ft 503 kts 53°
2026-04-23 00:47 32.23602 136.02149 36871 ft 503 kts 54°
2026-04-23 00:48 32.27361 136.09113 36867 ft 503 kts 54°
2026-04-23 00:48 32.31128 136.16075 36868 ft 503 kts 53°
2026-04-23 00:49 32.34905 136.23033 36865 ft 503 kts 54°
2026-04-23 00:49 32.38655 136.29969 36862 ft 504 kts 54°
2026-04-23 00:50 32.42423 136.36958 36863 ft 504 kts 54°
2026-04-23 00:50 32.46187 136.43973 36865 ft 505 kts 54°
2026-04-23 00:51 32.49959 136.50997 36866 ft 505 kts 54°
2026-04-23 00:51 32.53729 136.58026 36865 ft 506 kts 54°
2026-04-23 00:52 32.57499 136.65076 36863 ft 506 kts 54°
2026-04-23 00:52 32.61268 136.72136 36862 ft 508 kts 54°
2026-04-23 00:53 32.65047 136.79221 36865 ft 508 kts 54°
2026-04-23 00:53 32.68815 136.86321 36867 ft 509 kts 54°
2026-04-23 00:54 32.72591 136.93426 36874 ft 509 kts 54°
2026-04-23 00:54 32.76335 137.00499 36879 ft 509 kts 54°
2026-04-23 00:55 32.80107 137.07628 36879 ft 510 kts 54°
2026-04-23 00:55 32.83876 137.14763 36882 ft 510 kts 54°
2026-04-23 00:56 32.87638 137.21913 36883 ft 510 kts 54°
2026-04-23 00:56 32.91400 137.29075 36897 ft 510 kts 54°
2026-04-23 00:57 32.95164 137.36245 36900 ft 510 kts 54°
2026-04-23 00:57 32.98923 137.43421 36915 ft 511 kts 54°
2026-04-23 00:58 33.02674 137.50603 36911 ft 511 kts 54°
2026-04-23 00:58 33.06443 137.57813 36924 ft 512 kts 54°
2026-04-23 00:59 33.10199 137.65021 36932 ft 512 kts 54°
2026-04-23 00:59 33.13926 137.72195 36930 ft 512 kts 54°
2026-04-23 01:00 33.17673 137.79430 36930 ft 512 kts 54°
2026-04-23 01:00 33.21420 137.86669 36930 ft 513 kts 54°
2026-04-23 01:01 33.25170 137.93924 36929 ft 514 kts 54°
2026-04-23 01:01 33.28916 138.01195 36928 ft 514 kts 54°
2026-04-23 01:02 33.32666 138.08477 36931 ft 514 kts 54°
2026-04-23 01:02 33.36408 138.15764 36932 ft 514 kts 54°
2026-04-23 01:03 33.40150 138.23068 36939 ft 515 kts 54°
2026-04-23 01:03 33.43888 138.30378 36951 ft 515 kts 54°
2026-04-23 01:04 33.47601 138.37653 36952 ft 515 kts 54°
2026-04-23 01:04 33.53204 138.48638 36954 ft 515 kts 54°
2026-04-23 01:05 33.56935 138.55980 36955 ft 516 kts 54°
2026-04-23 01:05 33.60036 138.62087 36958 ft 516 kts 54°
2026-04-23 01:06 33.63762 138.69436 36960 ft 515 kts 54°
2026-04-23 01:06 33.67477 138.76787 36959 ft 515 kts 54°
2026-04-23 01:07 33.71182 138.84146 36959 ft 515 kts 54°
2026-04-23 01:07 33.74880 138.91508 36956 ft 515 kts 54°
2026-04-23 01:08 33.78586 138.98871 36954 ft 515 kts 54°
2026-04-23 01:08 33.82294 139.06251 36955 ft 515 kts 54°
2026-04-23 01:09 33.85987 139.13639 36954 ft 516 kts 54°
2026-04-23 01:09 33.89662 139.20999 36955 ft 516 kts 54°
2026-04-23 01:10 33.93362 139.28409 36954 ft 517 kts 54°
2026-04-23 01:10 33.97057 139.35829 36955 ft 517 kts 54°
2026-04-23 01:11 34.00749 139.43277 36954 ft 517 kts 54°
2026-04-23 01:11 34.04444 139.50732 36939 ft 519 kts 54°
2026-04-23 01:12 34.08357 139.58014 36932 ft 513 kts 45°
2026-04-23 01:12 34.12826 139.64724 36936 ft 514 kts 45°
2026-04-23 01:13 34.17298 139.71453 36845 ft 515 kts 45°
2026-04-23 01:13 34.19556 139.74856 35749 ft 527 kts 45°
2026-04-23 01:13 34.21869 139.78337 35030 ft 530 kts 46°
2026-04-23 01:14 34.24124 139.81754 34556 ft 526 kts 46°
2026-04-23 01:14 34.26402 139.85214 33949 ft 525 kts 46°
2026-04-23 01:14 34.28676 139.88668 33346 ft 525 kts 46°
2026-04-23 01:14 34.30943 139.92113 32755 ft 523 kts 46°
2026-04-23 01:15 34.33205 139.95554 32147 ft 522 kts 46°
2026-04-23 01:15 34.35462 139.98984 31579 ft 519 kts 47°
2026-04-23 01:15 34.37703 140.02391 31084 ft 515 kts 47°
2026-04-23 01:15 34.39920 140.05765 30575 ft 511 kts 47°
2026-04-23 01:16 34.42124 140.09122 30073 ft 506 kts 47°
2026-04-23 01:16 34.44299 140.12440 29583 ft 502 kts 47°
2026-04-23 01:16 34.46391 140.15812 29102 ft 499 kts 54°
2026-04-23 01:16 34.48234 140.19354 28636 ft 495 kts 55°
2026-04-23 01:17 34.50051 140.22870 28175 ft 490 kts 56°
2026-04-23 01:17 34.51851 140.26359 27718 ft 485 kts 56°
2026-04-23 01:17 34.53630 140.29810 27276 ft 481 kts 56°
2026-04-23 01:17 34.55397 140.33237 26836 ft 476 kts 56°
2026-04-23 01:18 34.57146 140.36629 26394 ft 472 kts 56°
2026-04-23 01:18 34.58876 140.39988 25954 ft 468 kts 56°
2026-04-23 01:18 34.60569 140.43283 25516 ft 465 kts 57°
2026-04-23 01:18 34.62275 140.46599 25066 ft 461 kts 57°
2026-04-23 01:19 34.63996 140.49875 24444 ft 461 kts 52°
2026-04-23 01:19 34.66190 140.52730 23536 ft 459 kts 34°
2026-04-23 01:19 34.68816 140.54761 22884 ft 439 kts 19°
2026-04-23 01:19 34.71643 140.55909 22129 ft 419 kts
2026-04-23 01:20 34.74489 140.56437 21275 ft 410 kts
2026-04-23 01:20 34.77295 140.56919 20427 ft 405 kts
2026-04-23 01:20 34.80025 140.57422 20035 ft 385 kts
2026-04-23 01:20 34.82632 140.57933 19524 ft 374 kts
2026-04-23 01:21 34.85186 140.58328 18877 ft 368 kts 359°
2026-04-23 01:21 34.87716 140.58595 18292 ft 361 kts 356°
2026-04-23 01:21 34.90218 140.58770 17709 ft 356 kts 356°
2026-04-23 01:21 34.92660 140.58936 17079 ft 349 kts 357°
2026-04-23 01:22 34.95070 140.59112 16404 ft 344 kts 358°
2026-04-23 01:22 34.97444 140.59305 15722 ft 341 kts 358°
2026-04-23 01:22 34.99793 140.59497 15058 ft 337 kts 359°
2026-04-23 01:22 35.02119 140.59692 14393 ft 332 kts 360°
2026-04-23 01:23 35.04409 140.59890 13712 ft 329 kts
2026-04-23 01:23 35.06690 140.60091 13090 ft 328 kts
2026-04-23 01:23 35.08918 140.60300 12481 ft 323 kts
2026-04-23 01:23 35.11152 140.60510 11901 ft 323 kts
2026-04-23 01:24 35.13380 140.60717 11600 ft 320 kts
2026-04-23 01:24 35.15581 140.60918 11266 ft 315 kts
2026-04-23 01:24 35.17765 140.61115 10892 ft 315 kts
2026-04-23 01:24 35.19927 140.61317 10705 ft 308 kts
2026-04-23 01:25 35.22051 140.61514 10391 ft 304 kts
2026-04-23 01:25 35.24168 140.61695 10071 ft 304 kts
2026-04-23 01:25 35.26270 140.61878 9991 ft 303 kts
2026-04-23 01:25 35.28378 140.62066 9904 ft 305 kts
2026-04-23 01:26 35.30497 140.62257 9437 ft 307 kts
2026-04-23 01:26 35.32623 140.62446 9113 ft 305 kts
2026-04-23 01:26 35.34729 140.62636 8785 ft 302 kts
2026-04-23 01:26 35.36820 140.62827 8455 ft 300 kts
2026-04-23 01:27 35.38893 140.63016 8133 ft 299 kts
2026-04-23 01:27 35.40959 140.63203 7806 ft 297 kts
2026-04-23 01:27 35.43012 140.63389 7478 ft 294 kts
2026-04-23 01:27 35.45016 140.63129 7172 ft 288 kts 340°
2026-04-23 01:28 35.46794 140.62087 6892 ft 281 kts 327°
2026-04-23 01:28 35.48468 140.60877 6617 ft 278 kts 327°
2026-04-23 01:28 35.50108 140.59697 6343 ft 275 kts 327°
2026-04-23 01:28 35.51753 140.58520 6092 ft 271 kts 327°
2026-04-23 01:29 35.53378 140.57356 5777 ft 271 kts 327°
2026-04-23 01:29 35.55007 140.56187 5424 ft 271 kts 327°
2026-04-23 01:29 35.56640 140.55015 5063 ft 272 kts 327°
2026-04-23 01:29 35.58274 140.53841 4701 ft 273 kts 327°
2026-04-23 01:30 35.59915 140.52663 4343 ft 272 kts 327°
2026-04-23 01:30 35.61535 140.51499 3973 ft 265 kts 328°
2026-04-23 01:30 35.63087 140.50383 3630 ft 253 kts 327°
2026-04-23 01:30 35.64577 140.49310 3305 ft 243 kts 328°
2026-04-23 01:31 35.66006 140.48283 2988 ft 233 kts 328°
2026-04-23 01:31 35.67383 140.47291 2684 ft 225 kts 328°
2026-04-23 01:31 35.68703 140.46341 2411 ft 213 kts 329°
2026-04-23 01:31 35.69943 140.45447 2121 ft 201 kts 330°
2026-04-23 01:32 35.71114 140.44603 1855 ft 188 kts 330°
2026-04-23 01:32 35.72184 140.43829 1624 ft 170 kts 330°
2026-04-23 01:32 35.73168 140.43118 1407 ft 157 kts 331°
2026-04-23 01:32 35.74073 140.42468 1212 ft 144 kts 331°
2026-04-23 01:33 35.74916 140.41861 1016 ft 137 kts 334°
2026-04-23 01:33 35.75732 140.41256 813 ft 137 kts 334°
2026-04-23 01:33 35.76549 140.40670 613 ft 135 kts 336°
2026-04-23 01:33 35.77361 140.40096 461 ft 135 kts 335°
2026-04-23 01:34 35.78170 140.39512 295 ft 134 kts 334°
2026-04-23 01:34 35.78972 140.38928 153 ft 128 kts 332°
2026-04-23 01:34 35.79636 140.38449 143 ft 92 kts 329°
2026-04-23 01:34 35.80037 140.38160 147 ft 42 kts 329°
2026-04-23 01:35 35.80220 140.38011 146 ft 26 kts 319°
2026-04-23 01:35 35.80326 140.37863 145 ft 23 kts 309°
2026-04-23 01:35 35.80362 140.37748 144 ft 10 kts 260°
2026-04-23 01:35 35.80301 140.37712 144 ft 12 kts 159°
2026-04-23 01:36 35.80206 140.37780 144 ft 22 kts 149°
2026-04-23 01:36 35.80049 140.37894 144 ft 28 kts 149°
2026-04-23 01:36 35.79871 140.38022 144 ft 31 kts 149°
2026-04-23 01:36 35.79678 140.38161 144 ft 33 kts 149°
2026-04-23 01:37 35.79471 140.38311 144 ft 36 kts 149°
2026-04-23 01:37 35.79251 140.38469 144 ft 38 kts 149°